Temperature
12 12 12 12 12 13 13 13 13 13 13 13 14 14 14 14 14 14 14 14 14 14 14 14 14 14 14 14 14 14 14 15 15 15 15 15 15 15 15 15 14 14 15
12 12 12 12 12 12 12 12 13 13 13 13 13 13 14 14 14 14 14 14 14 14 14 14 14 14 14 14 14 14 14 14 15 15 15 15 15 15 14 14 14 14 14
12 12 12 12 12 12 12 12 12 13 13 13 13 13 13 13 13 13 13 13 13 14 14 14 14 14 14 14 14 14 14 14 14 14 14 14 14 14 14 14 14 14 14
11 11 12 11 12 12 12 12 12 12 12 12 13 13 13 13 13 13 13 13 13 13 13 13 13 13 13 14 14 14 14 14 14 14 13 13 14 14 14 14 14 14 14
11 11 11 11 11 12 12 12 12 12 12 12 12 12 13 13 13 13 13 13 13 13 13 13 13 13 13 13 13 13 13 14 14 13 13 13 13 14 14 14 14 14 14
11 11 11 11 11 11 12 12 12 12 12 12 12 12 12 12 12 12 12 12 13 13 13 13 13 13 13 13 13 13 13 14 13 13 13 13 13 13 13 13 13 13 13
10 10 11 11 11 11 11 11 11 11 11 11 12 12 12 12 12 12 12 12 12 12 12 12 12 12 12 13 13 13 13 13 13 13 12 13 13 13 13 13 13 13 13
10 10 10 11 11 11 11 11 11 11 11 11 11 11 11 11 12 12 12 12 12 12 12 12 12 12 12 12 13 13 13 13 13 12 12 12 13 13 13 12 12 12 13
10 10 10 10 10 10 11 11 11 11 11 11 11 11 11 11 11 11 11 11 11 11 12 12 12 12 12 12 12 12 13 12 12 12 12 12 12 12 12 12 12 12 12
9 10 10 10 10 10 10 10 10 10 10 10 11 11 11 11 11 11 11 11 11 11 11 11 11 11 12 12 12 12 12 12 12 12 12 12 12 12 12 12 12 12 12
9 9 9 9 10 10 10 10 10 10 10 10 10 10 10 10 10 10 10 11 11 11 11 11 11 11 11 11 11 12 12 11 11 11 11 11 12 12 12 12 12 12 12
9 9 9 9 9 9 9 9 9 9 9 10 10 10 10 10 10 10 10 10 10 10 10 10 10 11 11 11 11 11 11 11 11 11 11 11 11 11 11 11 11 11 12
8 8 8 9 9 9 9 9 9 9 9 9 9 9 9 9 9 9 10 10 10 10 10 10 10 10 10 10 10 10 10 10 10 10 11 11 11 11 11 11 11 11 11
7 8 8 8 8 8 8 8 8 8 9 9 9 9 9 9 9 9 9 9 9 9 9 9 9 10 10 10 10 10 10 10 10 10 10 10 10 10 10 10 10 10 11
7 7 7 7 7 8 8 8 8 8 8 8 8 8 8 8 8 8 8 8 9 9 9 9 9 9 9 9 9 9 9 9 9 9 10 10 10 10 10 10 10 10 10
6 7 7 7 7 7 7 7 7 7 7 7 7 7 8 8 8 8 8 8 8 8 8 8 8 8 9 9 9 9 9 9 9 9 9 9 9 10 10 10 10 10 10
6 6 6 6 6 6 6 6 6 6 6 6 6 7 7 7 7 7 7 7 7 8 8 8 8 8 8 8 8 8 8 8 8 8 8 9 9 9 9 9 9 9 9
5 5 5 5 5 5 5 5 6 6 6 6 6 6 6 6 6 6 6 7 7 7 7 7 7 7 7 7 7 7 7 7 7 8 8 8 8 8 8 9 9 9 9
4 5 5 5 5 5 5 5 5 5 5 5 5 5 5 5 5 5 6 6 6 6 6 6 7 7 7 7 7 7 7 7 7 7 7 7 7 8 8 8 8 8 9
4 4 4 4 4 4 4 4 4 4 4 4 4 4 5 5 5 5 5 5 5 6 6 6 6 6 6 6 6 6 6 6 6 6 7 7 7 7 7 7 7 8 8
3 3 3 4 4 4 4 4 4 4 4 4 4 4 4 4 4 4 4 4 5 5 5 5 5 5 5 5 5 5 5 6 6 6 6 6 6 6 7 7 7 7 7
3 3 3 3 3 3 3 3 3 3 3 3 3 3 3 3 3 3 3 4 4 4 4 4 4 5 5 5 4 4 4 5 5 5 5 6 6 6 6 6 6 6 7
2 2 2 2 2 2 2 2 2 2 2 2 2 2 2 2 2 3 3 3 3 3 3 4 4 4 4 4 4 4 4 4 4 4 5 5 5 5 5 6 6 6 6
1 2 2 2 2 1 1 1 1 1 1 1 1 1 2 2 2 2 2 2 2 3 3 3 3 3 3 3 3 3 3 3 3 3 4 4 4 4 5 5 5 5 5
1 1 1 1 1 1 1 1 0 0 0 0 0 1 1 1 1 1 1 1 2 2 2 2 2 2 2 2 2 2 2 2 2 2 2 3 3 4 4 4 4 4 5
0 0 0 0 0 0 -0 -0 -0 -0 -0 -0 -0 -0 0 0 0 0 0 1 1 1 1 1 2 2 1 1 1 1 1 1 1 2 2 2 2 3 3 3 3 4 4
Wind_Speed
1 2 3 4 6 7 8 8 8 8 8 8 8 8 8 8 8 9 9 9 9 10 10 11 12 11 12 13 13 13 13 13 13 13 12 12 12 12 12 10 10 11 13
1 2 3 4 6 8 9 9 8 7 7 8 8 8 8 7 7 8 8 9 9 9 10 11 11 11 11 12 12 12 12 12 12 11 10 10 10 10 11 10 10 10 12
3 3 3 5 7 8 8 9 9 8 7 7 8 8 8 7 7 8 8 8 9 9 10 10 11 11 11 11 11 11 11 11 10 8 6 8 9 10 10 10 10 11 11
4 4 5 6 7 7 8 8 9 8 7 7 7 7 7 7 8 8 8 8 9 9 9 9 10 10 10 10 10 10 9 9 8 5 6 7 8 9 8 9 9 10 10
5 5 6 8 8 8 8 8 8 8 8 8 7 7 7 7 8 8 8 9 9 9 9 9 9 9 9 9 9 8 8 7 6 5 6 6 7 8 8 8 9 9 9
6 6 7 9 9 9 9 9 9 9 8 8 8 7 7 8 8 9 9 9 9 9 9 9 8 8 8 8 7 7 7 5 3 5 5 5 6 7 7 7 8 8 8
6 6 7 8 9 9 10 9 9 9 8 8 8 8 8 8 9 9 8 8 8 8 8 8 7 7 7 7 7 6 6 4 3 4 4 5 6 6 6 7 7 8 8
6 6 7 8 8 9 10 10 9 9 9 8 8 8 8 8 8 8 8 7 7 7 7 7 7 6 6 6 6 6 5 3 3 4 4 4 6 5 5 6 6 7 7
6 6 6 6 7 8 9 10 10 9 8 8 8 8 9 9 9 9 8 7 6 6 6 6 6 6 6 6 6 6 5 3 2 3 3 3 5 4 4 5 5 6 6
6 6 6 6 6 6 7 8 9 9 8 8 9 9 8 8 9 9 8 8 6 6 6 6 6 6 5 5 5 5 3 1 2 2 2 4 4 3 3 3 4 4 5
4 4 5 5 5 6 6 6 7 8 8 7 7 8 6 5 6 6 8 8 7 6 6 5 5 5 5 5 5 4 1 1 2 2 3 4 3 3 3 3 3 3 4
3 3 4 4 4 5 5 5 5 5 5 5 5 5 5 5 5 5 6 8 7 6 5 5 4 3 2 3 3 1 1 1 2 2 3 4 3 2 2 2 2 3 3
2 2 3 4 4 4 4 4 4 4 4 5 5 5 4 4 4 4 3 4 4 3 3 3 2 2 2 2 1 1 1 1 1 1 3 3 3 2 1 1 1 1 2
2 2 2 3 3 3 3 3 3 3 4 4 5 5 4 3 3 3 3 3 3 3 2 2 1 2 2 1 1 1 1 1 1 1 2 3 3 2 1 0 0 1 2
2 2 3 3 3 3 3 3 3 3 4 4 5 5 4 3 3 3 2 3 3 3 2 2 2 1 2 2 2 2 2 2 1 1 1 3 3 2 2 1 1 2 2
1 1 2 3 3 2 2 2 2 3 3 3 4 5 6 4 3 2 2 2 3 3 3 2 2 1 1 1 2 2 2 1 1 1 1 2 3 3 3 2 2 2 3
1 1 2 2 3 3 2 2 2 2 3 3 4 4 5 5 4 2 2 2 2 3 3 2 2 1 1 1 1 1 1 2 2 1 2 2 2 3 3 3 3 2 2
1 1 2 2 2 3 2 2 2 2 3 3 3 4 5 5 4 3 2 2 3 2 2 2 1 1 1 1 1 1 1 1 2 2 1 2 2 2 2 3 3 3 2
1 1 2 2 2 2 2 2 3 3 3 3 3 4 4 5 4 3 2 3 3 2 2 2 1 1 1 1 1 1 1 1 1 1 1 2 2 2 2 2 3 3 3
1 2 2 3 3 3 2 2 2 3 3 4 4 4 5 4 4 3 3 3 2 1 1 2 2 1 1 2 2 2 1 1 1 1 1 1 2 2 3 3 2 2 2
2 2 3 3 3 2 1 1 1 1 2 2 3 5 5 5 5 4 3 3 3 2 2 2 2 1 1 1 1 2 1 1 1 1 1 1 1 2 2 3 3 2 1
1 1 2 2 2 2 1 1 1 1 1 2 3 4 5 5 5 4 3 3 3 2 2 2 2 1 1 1 1 2 2 2 1 1 1 1 2 1 1 2 3 3 3
1 1 1 1 1 2 2 1 1 1 1 1 2 3 5 5 5 4 4 3 3 2 2 2 3 2 1 1 1 1 2 2 1 1 1 1 2 1 2 2 2 2 3
0 1 1 1 2 2 2 1 1 0 1 2 2 3 4 4 5 5 4 4 3 3 3 3 3 3 2 2 1 2 2 2 2 2 1 1 2 2 2 2 2 2 2
1 1 1 2 2 3 2 1 0 1 1 1 2 3 3 3 4 5 5 4 4 3 3 3 3 3 3 3 2 2 2 2 3 3 3 2 2 2 2 3 2 3 2
1 1 1 1 2 2 2 2 1 1 1 2 2 3 3 3 3 4 5 4 4 4 4 4 4 4 3 3 3 2 3 3 3 3 4 4 3 3 3 3 2 3 3
Wind_Direction
115 37 23 45 63 75 80 85 86 85 84 84 84 86 85 84 82 80 77 74 73 72 71 72 73 73 74 74 74 73 75 73 73 72 71 72 74 77 78 77 82 84 82
106 87 54 56 73 79 78 76 78 81 81 82 81 82 83 87 87 84 81 79 76 74 73 72 73 72 73 73 74 72 72 71 72 72 76 79 76 76 77 73 69 82 85
90 84 76 69 76 83 83 77 74 74 79 80 79 79 79 82 84 86 85 83 79 77 76 74 73 73 72 75 74 73 70 68 67 67 83 90 86 80 81 83 83 85 88
90 80 70 65 78 86 85 81 75 70 73 79 77 75 74 77 79 79 78 80 79 78 76 75 74 75 73 75 77 75 72 66 60 51 75 81 86 84 83 88 89 88 89
85 73 70 63 72 80 82 81 76 70 68 75 73 71 70 73 75 78 75 75 74 73 73 76 75 74 74 73 77 76 73 67 60 63 70 74 78 82 84 88 92 91 90
83 71 69 61 65 71 76 77 75 70 66 68 67 67 67 68 70 74 73 74 73 72 70 73 75 74 75 73 73 74 69 59 75 77 74 76 79 81 85 89 94 95 94
86 74 71 63 59 64 67 70 72 69 66 66 63 60 62 65 64 67 71 73 72 73 72 71 73 74 73 72 69 71 62 34 66 76 71 74 77 79 84 92 94 98 99
88 75 68 64 58 62 63 61 62 65 65 64 63 60 61 60 61 63 66 71 73 72 70 68 70 73 71 67 62 63 59 35 71 76 75 75 73 79 84 91 95 99 100
86 77 67 63 58 56 58 58 54 53 59 63 63 65 65 62 60 56 57 64 71 72 70 67 67 67 70 68 61 55 58 28 70 76 77 78 72 76 81 86 92 98 102
80 71 65 61 58 57 55 55 54 51 53 62 67 67 66 64 61 56 53 54 58 66 69 68 68 65 66 67 63 55 64 75 81 79 79 74 65 77 83 91 98 100 100
67 58 56 58 55 54 56 54 53 54 52 59 64 63 63 60 56 54 47 46 49 53 63 67 68 63 67 71 66 53 72 92 75 58 61 50 49 71 81 87 97 100 102
60 41 37 42 49 52 53 53 48 48 48 50 55 51 46 49 48 45 50 46 44 49 62 61 64 70 63 72 70 58 59 61 62 60 53 32 21 50 85 83 85 97 106
88 50 31 32 41 54 51 48 46 42 44 43 49 49 44 44 45 39 35 36 30 32 44 51 57 45 28 39 36 35 28 45 63 65 54 26 4 10 50 82 93 111 120
69 36 28 30 34 47 54 51 46 46 45 40 34 37 38 37 35 31 26 15 11 4 10 17 12 19 18 27 32 37 34 33 34 47 46 27 356 343 345 310 189 163 162
70 38 23 19 27 39 56 51 45 44 45 39 33 26 28 31 23 17 9 12 7 356 359 1 359 8 19 23 24 29 25 22 11 352 34 34 5 339 335 300 256 220 196
40 44 35 24 17 31 56 51 48 49 48 43 36 26 25 18 10 3 2 1 5 354 343 336 340 338 358 9 18 16 9 11 3 354 351 28 24 356 335 331 304 254 219
26 40 45 33 19 23 44 63 59 57 53 42 30 26 26 17 3 348 351 355 355 344 335 329 344 330 330 347 7 358 3 2 356 356 349 351 8 14 9 349 331 316 271
39 46 41 37 33 24 23 49 66 59 50 39 27 23 19 10 3 351 344 347 345 342 334 317 328 302 294 296 298 320 331 341 350 346 0 3 355 343 355 356 333 323 310
49 56 53 42 45 34 27 42 60 59 42 30 25 20 10 4 359 359 345 341 334 334 328 319 315 300 285 297 295 299 321 318 330 343 9 9 358 345 328 329 323 321 316
59 59 52 51 41 40 39 43 58 50 36 31 25 17 9 360 356 352 350 338 336 329 321 320 299 302 298 303 295 294 303 306 320 345 358 5 5 358 345 333 319 318 307
56 54 48 44 41 47 32 5 2 350 12 21 20 17 10 0 352 347 349 346 336 321 310 310 298 282 318 333 294 286 271 249 296 334 357 347 356 6 4 350 337 332 322
66 59 57 46 42 38 19 5 339 333 353 11 11 12 4 356 352 347 343 337 334 313 303 298 304 266 305 323 278 268 266 227 236 279 309 321 321 341 4 355 344 342 335
71 37 23 38 46 34 29 47 57 45 360 348 346 354 356 350 348 347 338 331 324 314 294 291 288 267 244 248 282 268 253 250 296 241 245 274 300 308 325 336 334 336 332
150 36 33 33 45 35 36 48 81 352 317 316 321 327 343 346 345 345 337 335 326 310 299 294 288 276 247 236 252 270 279 291 260 260 224 243 290 304 312 311 313 317 313
159 82 50 51 43 33 32 34 31 324 311 317 325 322 331 341 340 342 338 333 328 313 297 293 284 281 252 241 241 261 257 262 255 254 257 265 274 283 292 287 293 304 305
161 108 72 72 48 32 28 21 352 322 325 324 324 319 321 325 332 337 333 328 321 316 307 294 279 272 259 249 242 241 248 244 241 249 258 266 271 277 280 273 280 291 294
Height
1546 1547 1547 1548 1548 1549 1549 1549 1549 1549 1549 1549 1548 1548 1548 1548 1548 1547 1547 1547 1547 1547 1547 1546 1546 1546 1545 1545 1545 1544 1544 1544 1544 1544 1544 1544 1544 1544 1544 1544 1544 1544 1543
1545 1547 1547 1548 1548 1549 1549 1549 1549 1549 1549 1549 1549 1549 1549 1548 1548 1548 1548 1548 1547 1547 1547 1547 1547 1547 1546 1546 1546 1545 1545 1545 1545 1545 1545 1545 1545 1545 1545 1545 1545 1545 1545
1545 1547 1547 1548 1548 1549 1549 1549 1549 1549 1549 1549 1549 1549 1549 1549 1548 1548 1548 1548 1548 1548 1548 1547 1547 1547 1547 1547 1546 1546 1546 1546 1546 1546 1546 1547 1547 1546 1546 1546 1546 1546 1546
1545 1546 1547 1548 1548 1549 1549 1549 1549 1549 1549 1549 1549 1549 1549 1549 1548 1548 1548 1548 1548 1548 1548 1548 1547 1547 1547 1547 1547 1547 1547 1547 1547 1547 1548 1548 1548 1547 1547 1547 1547 1547 1547
1545 1546 1547 1548 1548 1549 1549 1549 1549 1549 1549 1549 1549 1549 1549 1549 1548 1548 1548 1548 1548 1548 1548 1548 1547 1547 1547 1547 1547 1547 1547 1547 1547 1548 1548 1548 1548 1548 1548 1548 1548 1548 1548
1545 1546 1547 1548 1548 1548 1549 1549 1549 1549 1549 1549 1549 1549 1549 1549 1548 1548 1548 1548 1547 1547 1547 1547 1547 1547 1547 1547 1547 1547 1547 1547 1548 1548 1549 1549 1548 1548 1548 1548 1549 1549 1549
1545 1546 1547 1548 1548 1548 1548 1549 1549 1549 1549 1549 1549 1549 1549 1548 1548 1548 1548 1547 1547 1547 1547 1547 1547 1547 1547 1547 1547 1547 1547 1547 1548 1548 1548 1548 1548 1548 1548 1549 1549 1549 1549
1545 1546 1546 1547 1548 1548 1548 1548 1548 1549 1549 1549 1549 1549 1549 1548 1548 1547 1547 1547 1547 1547 1547 1547 1546 1546 1546 1546 1546 1546 1547 1547 1548 1548 1548 1548 1548 1548 1548 1549 1549 1549 1549
1545 1545 1546 1547 1547 1547 1547 1548 1548 1548 1549 1549 1549 1548 1548 1548 1547 1547 1547 1546 1546 1546 1546 1546 1546 1546 1546 1546 1546 1546 1546 1546 1548 1547 1548 1548 1548 1548 1548 1549 1549 1549 1549
1544 1545 1545 1546 1546 1546 1547 1547 1547 1548 1548 1548 1548 1548 1548 1548 1547 1547 1546 1546 1546 1546 1545 1545 1545 1545 1545 1545 1545 1545 1545 1546 1547 1547 1547 1547 1547 1548 1548 1548 1549 1549 1549
1543 1544 1545 1545 1545 1546 1546 1546 1546 1547 1547 1547 1547 1547 1547 1547 1546 1546 1546 1545 1545 1545 1545 1544 1544 1544 1544 1544 1544 1544 1545 1545 1546 1546 1546 1546 1547 1547 1547 1548 1548 1549 1549
1541 1542 1543 1544 1544 1545 1545 1545 1545 1546 1546 1546 1545 1546 1546 1546 1545 1545 1545 1544 1544 1544 1543 1543 1543 1543 1543 1543 1543 1543 1544 1544 1544 1545 1545 1545 1546 1546 1547 1547 1547 1548 1548
1540 1541 1542 1542 1543 1543 1544 1544 1544 1544 1544 1544 1544 1544 1544 1544 1544 1544 1543 1543 1543 1542 1542 1542 1542 1542 1542 1542 1542 1542 1542 1542 1543 1543 1543 1544 1544 1545 1545 1546 1546 1547 1547
1539 1540 1540 1541 1542 1542 1542 1543 1543 1543 1543 1543 1543 1543 1542 1542 1542 1542 1542 1541 1541 1541 1540 1540 1540 1540 1540 1540 1540 1540 1540 1541 1541 1541 1542 1542 1543 1543 1544 1544 1545 1545 1546
1538 1538 1539 1539 1540 1540 1541 1541 1541 1541 1541 1541 1541 1541 1541 1540 1540 1540 1540 1540 1539 1539 1539 1538 1539 1538 1538 1538 1538 1538 1538 1539 1539 1539 1540 1540 1541 1541 1542 1542 1543 1544 1544
1537 1537 1537 1538 1538 1539 1539 1539 1539 1539 1539 1539 1539 1538 1538 1538 1538 1538 1538 1537 1537 1537 1537 1537 1536 1536 1536 1536 1536 1536 1537 1537 1537 1537 1538 1538 1538 1539 1540 1540 1541 1541 1542
1535 1535 1536 1536 1537 1537 1537 1537 1537 1537 1538 1537 1537 1536 1536 1536 1535 1535 1535 1535 1535 1535 1534 1534 1534 1534 1534 1534 1534 1534 1534 1534 1534 1535 1535 1535 1536 1536 1537 1537 1538 1539 1539
1533 1533 1534 1534 1535 1535 1535 1535 1535 1536 1536 1535 1535 1534 1534 1534 1533 1533 1532 1532 1532 1532 1532 1531 1531 1531 1531 1531 1532 1532 1532 1532 1532 1532 1533 1533 1533 1533 1534 1534 1535 1536 1536
1532 1532 1532 1532 1532 1533 1533 1533 1533 1533 1533 1533 1533 1532 1531 1531 1531 1530 1530 1529 1529 1529 1529 1529 1529 1529 1529 1529 1529 1529 1529 1529 1530 1530 1530 1530 1530 1531 1531 1532 1532 1533 1533
1530 1530 1530 1530 1530 1531 1531 1531 1531 1531 1531 1530 1530 1529 1529 1528 1528 1528 1527 1526 1526 1526 1526 1526 1526 1526 1526 1526 1526 1526 1526 1527 1527 1526 1527 1527 1528 1528 1528 1529 1530 1530 1530
1527 1528 1528 1528 1528 1528 1528 1528 1528 1528 1528 1527 1527 1527 1526 1526 1525 1524 1524 1523 1523 1522 1523 1523 1523 1522 1522 1523 1524 1524 1524 1524 1524 1524 1524 1525 1525 1525 1526 1526 1527 1527 1527
1525 1525 1526 1526 1526 1526 1525 1525 1525 1525 1524 1524 1524 1523 1523 1522 1522 1521 1521 1520 1519 1519 1519 1519 1519 1519 1519 1520 1521 1521 1522 1523 1521 1521 1521 1521 1522 1522 1523 1523 1524 1524 1524
1522 1523 1523 1523 1523 1523 1523 1523 1523 1522 1521 1521 1521 1520 1519 1519 1518 1518 1517 1517 1516 1516 1516 1516 1516 1516 1516 1516 1517 1519 1519 1519 1518 1518 1517 1518 1519 1519 1520 1520 1521 1521 1522
1520 1521 1521 1521 1521 1520 1520 1520 1519 1519 1518 1517 1517 1516 1516 1515 1515 1514 1513 1513 1513 1512 1512 1512 1512 1512 1512 1513 1514 1515 1516 1516 1517 1515 1515 1515 1516 1516 1516 1517 1518 1518 1519
1518 1518 1518 1518 1518 1518 1517 1517 1517 1516 1516 1515 1514 1513 1512 1512 1511 1510 1510 1509 1509 1509 1509 1508 1508 1508 1509 1509 1510 1511 1512 1512 1513 1513 1512 1512 1512 1513 1513 1514 1514 1515 1515
1515 1516 1516 1515 1515 1515 1515 1514 1514 1513 1512 1512 1511 1510 1509 1508 1508 1506 1506 1505 1505 1505 1505 1504 1505 1505 1505 1505 1506 1507 1508 1508 1509 1509 1509 1508 1508 1509 1509 1510 1510 1511 1511